Regional Weather Roundup
Issued by NWS

Home | Current Version | Previous Version | Graphics & Text | Print | Product List | Glossary On
Versions: 1 2 3 4 5 6 7 8 9 10 11 12 13 14 15 16 17 18 19 20 21 22 23 24 25 26 27 28 29 30 31 32 33 34 35 36 37 38 39 40 41 42 43 44 45 46 47 48 49 50
000
ASUS43 KDTX 290010
RWRMI
MICHIGAN HOURLY REGIONAL WEATHER ROUNDUP
NATIONAL WEATHER SERVICE DETROIT/PONTIAC MI
800 PM EDT WED SEP 28 2016

NOTE: "FAIR" INDICATES FEW OR NO CLOUDS BELOW 12,000 FEET WITH NO
SIGNIFICANT WEATHER AND/OR OBSTRUCTION TO VISIBILITY.

MIZ047>049-052>055-059>063-066>070-074>076-081>083-290100-
SOUTHEAST LOWER MICHIGAN

CITY           SKY/WX    TMP DP  RH WIND       PRES   REMARKS
ADRIAN         CLOUDY    58  56  93 NE12      29.97R
6HR MIN TEMP:  54; 6HR MAX TEMP:  60; 6HR PCP: TRACE;

ALMA           CLOUDY    58  56  92 NW6       30.06R
ANN ARBOR      CLOUDY    58  55  90 N6        29.98R
BAD AXE        PTCLDY    58  52  78 E3        30.07S
6HR MIN TEMP:  58; 6HR MAX TEMP:  65;

CARO           MOCLDY    64  57  78 NE7       30.04R
DETROIT CITY   CLOUDY    61  59  93 W5        29.97F
6HR MIN TEMP:  59; 6HR MAX TEMP:  61; 6HR PCP:  0.04;

DETROIT        CLOUDY    59  58  96 NE8       29.99S
6HR MIN TEMP:  58; 6HR MAX TEMP:  60; 6HR PCP:  0.18;

FLINT          CLOUDY    58  55  90 N7        30.02R
6HR MIN TEMP:  57; 6HR MAX TEMP:  62; 6HR PCP:  0.05;

GROSSE ILE     CLOUDY    59  57  91 N9        29.96S
6HR MIN TEMP:  58; 6HR MAX TEMP:  60; 6HR PCP:  0.24;

HILLSDALE      CLOUDY    55  54  94 NE8       29.96R
HOWELL         LGT RAIN  56  54  92 CALM      30.00S
6HR MIN TEMP:  56; 6HR MAX TEMP:  58;


CITY           SKY/WX    TMP DP  RH WIND       PRES   REMARKS
JACKSON        LGT RAIN  56  55  97 NE10      29.99R
6HR MIN TEMP:  53; 6HR MAX TEMP:  57; 6HR PCP:  0.11;

LAMBERTVILLE   CLOUDY    62  55  78 E6        29.95S
6HR MIN TEMP:  60; 6HR MAX TEMP:  63;

LANSING        CLOUDY    57  52  83 N8        30.03R
6HR MIN TEMP:  56; 6HR MAX TEMP:  60; 6HR PCP: TRACE;

LAPEER         CLOUDY    62  56  81 NE5       30.02S
6HR MIN TEMP:  60; 6HR MAX TEMP:  65;

MASON          CLOUDY    57  53  87 NE7       30.01R
MONROE         CLOUDY    58  57  97 NW5       29.96R
6HR MIN TEMP:  57; 6HR MAX TEMP:  62; 6HR PCP:  0.27;

MT. CLEMENS    CLOUDY    63  56  78 N7        29.97S
6HR MIN TEMP:  63; 6HR MAX TEMP:  67;

PONTIAC        CLOUDY    59  56  89 N5        29.99S
6HR MIN TEMP:  57; 6HR MAX TEMP:  62; 6HR PCP:  0.02;

PORT HURON     CLOUDY    63  52  67 NE6       30.00S
TRI CITIES     MOCLDY    58  54  86 N9        30.06R
6HR MIN TEMP:  58; 6HR MAX TEMP:  63; 6HR PCP:  0.03;

MIDLAND        FAIR      55  53  94 N3        30.06R
6HR MIN TEMP:  55; 6HR MAX TEMP:  66; 6HR PCP:  0.12;

TROY           CLOUDY    62  57  83 N8        30.00S
SAGINAW HB     CLOUDY    61  55  82 N9        30.04R
$$
MIZ043>046-050>051-056>058-064>065-071>073-077>080-290100-
SOUTHWEST LOWER MICHIGAN

CITY           SKY/WX    TMP DP  RH WIND       PRES   REMARKS
BATTLE CREEK   CLOUDY    56  54  93 NE7       30.00R
6HR MIN TEMP:  56; 6HR MAX TEMP:  65; 6HR PCP: TRACE;

BENTON HARBOR  CLOUDY    58  50  75 NE8       30.00R
6HR MIN TEMP:  57; 6HR MAX TEMP:  67;

BIG RAPIDS     CLOUDY    59  52  76 NE6       30.09R
6HR MIN TEMP:  59; 6HR MAX TEMP:  67;

COLDWATER      CLOUDY    57  54  89 N6        29.97R
6HR MIN TEMP:  55; 6HR MAX TEMP:  63;

FREMONT        CLOUDY    57  53  86 N5        30.07R
HOLLAND        MOCLDY    58  52  80 NE9G17    30.04R
6HR MIN TEMP:  57; 6HR MAX TEMP:  67; 6HR PCP:  0.13;

GRAND RAPIDS   CLOUDY    57  54  89 NE9       30.04R
6HR MIN TEMP:  56; 6HR MAX TEMP:  67; 6HR PCP:  0.06;

IONIA          CLOUDY    56  54  92 N10G16    30.03S
6HR MIN TEMP:  56; 6HR MAX TEMP:  64; 6HR PCP:  0.05;

KALAMAZOO      CLOUDY    57  51  80 NE6       30.01R
6HR MIN TEMP:  57; 6HR MAX TEMP:  66; 6HR PCP: TRACE;

LUDINGTON      CLOUDY    60  52  74 N6        30.10R
6HR MIN TEMP:  60; 6HR MAX TEMP:  67;

MARSHALL       CLOUDY    56  56  97 NE5       29.99R
6HR MIN TEMP:  54; 6HR MAX TEMP:  64;

MOUNT PLEASANT CLOUDY    56  53  90 N8        30.06S
6HR MIN TEMP:  56; 6HR MAX TEMP:  68; 6HR PCP:  0.12;

MUSKEGON       LGT RAIN  59  53  80 N9        30.06S
6HR MIN TEMP:  59; 6HR MAX TEMP:  69; 6HR PCP: TRACE;

SOUTH HAVEN    CLOUDY    58  54  89 NE8       30.01R
$$
MIZ016>042-290100-
NORTHERN LOWER MICHIGAN

CITY           SKY/WX    TMP DP  RH WIND       PRES   REMARKS
ALPENA         PTCLDY    58  52  80 N8        30.16R
6HR MIN TEMP:  58; 6HR MAX TEMP:  69;

BEAVER ISLAND  CLEAR     54  53  97 CALM      30.20R FOG
6HR MIN TEMP:  54; 6HR MAX TEMP:  64;

BELLAIRE       MOCLDY    58  52  78 CALM      30.17R
6HR MIN TEMP:  58; 6HR MAX TEMP:  68;

CADILLAC       MOCLDY    59  50  72 NE9       30.12R
CHARLEVOIX     CLOUDY    62  50  64 NE8       30.21R
FRANKFORT      CLEAR     61  53  75 N3        30.15R
GAYLORD        CLEAR     59  50  72 NE9       30.17R
6HR MIN TEMP:  59; 6HR MAX TEMP:  66;

GRAYLING       CLOUDY    58  50  75 E8        30.18R
HARBOR SPRINGS CLOUDY    61  50  69 NE8       30.18R HAZE
HOUGHTON LAKE  MOCLDY    54  51  90 N12       30.13R
6HR MIN TEMP:  54; 6HR MAX TEMP:  68; 6HR PCP:  0.09;

MANISTEE       CLEAR     61  52  72 N7        30.13R
OSCODA         CLEAR     59  58  96 N7        30.10R
6HR MIN TEMP:  58; 6HR MAX TEMP:  65;

PELLSTON       CLEAR     55  50  83 CALM      30.20R
6HR MIN TEMP:  55; 6HR MAX TEMP:  67;

ROGERS CITY    PTCLDY    62  56  82 CALM      30.18R
TRAVERSE CITY  PTCLDY    64  52  64 NE7       30.15R
6HR MIN TEMP:  64; 6HR MAX TEMP:  69; 6HR PCP: TRACE;

$$
MIZ007>008-015-290100-
EASTERN UPPER MICHIGAN

CITY           SKY/WX    TMP DP  RH WIND       PRES   REMARKS
KINROSS        CLEAR     59  52  77 N5        30.22R
6HR MIN TEMP:  59; 6HR MAX TEMP:  66;

MACKINAC ISLAN CLEAR     58  53  83 N7        30.20R
NEWBERRY       CLEAR     56  54  93 N5        30.22R
6HR MIN TEMP:  56; 6HR MAX TEMP:  63;

S. S. MARIE    CLEAR     58  51  78 CALM      30.22R
6HR MIN TEMP:  58; 6HR MAX TEMP:  69;

MUNISING         N/A     60  56  86 N13       30.25R
6HR MIN TEMP:  60; 6HR MAX TEMP:  64;

$$
MIZ004>006-011>014-085-290100-
CENTRAL UPPER MICHIGAN

CITY           SKY/WX    TMP DP  RH WIND       PRES   REMARKS
MANISTIQUE     CLEAR     56  52  88 N5        30.21R
6HR MIN TEMP:  56; 6HR MAX TEMP:  65;

ESCANABA       CLEAR     58  53  84 N6        30.23R
6HR MIN TEMP:  58; 6HR MAX TEMP:  65;

MENOMINEE      CLEAR     58  52  80 NE6       30.21R
SAWYER-GWINN   MOCLDY    55  50  82 NE13      30.26R
$$
MIZ001>003-009>011-084-290100-
WESTERN UPPER MICHIGAN

CITY           SKY/WX    TMP DP  RH WIND       PRES   REMARKS
IRON MOUNTAIN  MOCLDY    57  48  72 N10       30.24R
6HR MIN TEMP:  57; 6HR MAX TEMP:  64; 6HR PCP: TRACE;

HOUGHTON       CLOUDY    55  48  77 N7        30.31R
6HR MIN TEMP:  55; 6HR MAX TEMP:  60;

COPPER HARBOR    N/A     57  52  83 E8        30.30R
6HR MIN TEMP:  57; 6HR MAX TEMP:  59;

IRONWOOD       CLOUDY    54  52  93 NE6       30.32R
6HR MIN TEMP:  54; 6HR MAX TEMP:  58; 6HR PCP:  0.04;

$$

ABBREVIATIONS USED IN REMARKS
   TC - TEMPERATURE IN CELSIUS
  WCI - WIND CHILL INDEX
   HX - HEAT INDEX
  VSB - VISIBILITY





USA.gov is the U.S. government's official web portal to all federal, state and local government web resources and services.